Regional Weather Roundup
Issued by NWS Green Bay, WI

Home | Current Version | Previous Version | Graphics & Text | Print | Product List | Glossary Off
Versions: 1 2 3 4 5 6 7 8 9 10 11 12 13 14 15 16 17 18 19 20 21 22 23 24 25 26 27 28 29 30 31 32 33 34 35 36 37 38 39 40 41 42 43 44 45 46 47 48 49 50

000
ASUS43 KGRB 311011
RWRGRB

NORTH-CENTRAL AND NORTHEAST WISCONSIN REGIONAL WEATHER ROUNDUP
NATIONAL WEATHER SERVICE GREEN BAY WI
500 AM CDT FRI JUL 31 2015

WIZ005-009-010>012-018-019-311100-
NORTH CENTRAL WISCONSIN

CITY           SKY/WX    TMP DP  RH WIND       PRES   REMARKS
IRONWOOD       MOCLDY    59  55  88 W6        29.87F
MANITOWISH WTR CLOUDY    60  56  89 W5        29.91F
ARBOR VITAE    CLOUDY    63  56  79 W3        29.92F
EAGLE RIVER    MOCLDY    56  55  95 W7        29.91F
LAND O LAKES   PTCLDY    58  55  89 W3        29.91F
RHINELANDER    CLOUDY    61  56  83 W9        29.94S
PHILLIPS       CLEAR     59  56  88 CALM      29.94S
ANTIGO         CLEAR     56  55  95 CALM      29.95S
TOMAHAWK       MOCLDY    60  55  85 W5        29.94F
MERRILL        NOT AVBL
$$

WIZ013-073-311100-
NORTHEAST WISCONSIN

CITY           SKY/WX    TMP DP  RH WIND       PRES   REMARKS
IRON MOUNTAIN  CLEAR     62  55  77 W7        29.87S
MARINETTE      CLEAR     63  55  77 W5        29.88S
OCONTO         CLEAR     63  59  87 W7        29.90S
$$

WIZ017-030-035>037-045-311100-
CENTRAL WISCONSIN

CITY           SKY/WX    TMP DP  RH WIND       PRES   REMARKS
MEDFORD        CLEAR     59  56  88 W5        29.96S
WAUSAU         CLEAR     65  57  75 NW12      29.93F
MOSINEE        CLEAR     61  57  88 SW8       29.97S
MARSHFIELD     CLEAR     62  55  77 W7        29.97F
WISC RAPIDS    CLEAR     62  57  83 W7        29.99S
STEVENS POINT  CLEAR     63  56  80 W6        29.97S
WAUPACA        CLEAR     66  59  79 W6        29.96S
SHAWANO        CLEAR     65  57  75 W6        29.93S
CLINTONVILLE   CLEAR     63  55  77 W7        29.93S
$$

WIZ038-039-048-051-311100-
FOX VALLEY

CITY           SKY/WX    TMP DP  RH WIND       PRES   REMARKS
NWS GREEN BAY  CLEAR     65  58  78 W9        29.93S
APPLETON       CLEAR     63  55  77 W7        29.95F
OSHKOSH        CLEAR     68  57  68 W7        29.95F
FOND DU LAC    PTCLDY    64  57  78 SW8       29.97S
$$

WIZ022-050-052-311100-
EAST CENTRAL WISCONSIN

CITY           SKY/WX    TMP DP  RH WIND       PRES   REMARKS
STURGEON BAY   MOCLDY    64  55  72 W7        29.92S
MANITOWOC      CLEAR     67  60  78 MISG      29.94S
SHEBOYGAN      CLEAR     62  57  83 SW7       29.95F
$$

LMZ563-521-522-541>543-311100-
LAKESHORE

STATION/POSITION TIME  TEMP    WIND        PRES    VSBY  WAVE
                       AIR SEA DIR/SP/G                  HT/PER
                 (UTC) (F)     (DEG/KT/KT) (MB)    (MI)  (FT/S)
SHEBOYGAN LKSHOR 1000   68     250/ 10/ 12 1014.2R
KEWAUNEE LKSHORE 0900   68     290/  3/  8 1012.4S
ALGOMA MARINA    0942          280/  2/  6   N/A
NORTHPORT PIER   1000   68     270/  5/ 22 1011.2F
N MID LAKE BUOY  0950   69 68  260/ 12/ 16 1010.4F         2/ 4
S GREEN BAY BUOY 1000   65 66  260/ 10/ 12 1013.8R
SISTER BAY LKSHO 0914   69     290/ 18/ 20   N/A
CHAMBERS ISLAND  0900   66     220/  7/ 12 1011.5F
MENOMINEE LKSHOR 0900   67     240/  8/ 12 1012.7F
$$



USA.gov is the U.S. government's official web portal to all federal, state and local government web resources and services.